Regional Weather Roundup
Issued by NWS Goodland, KS

Home | Current Version | Previous Version | Text Only | Print | Product List | Glossary Off
Versions: 1 2 3 4 5 6 7 8 9 10 11 12 13 14 15 16 17 18 19 20 21 22 23 24 25 26 27 28 29 30 31 32 33 34 35 36 37 38 39 40 41 42 43 44 45 46 47 48 49 50

000
ASUS43 KGLD 300908
RWRGLD

GOODLAND FORECAST AREA HOURLY WEATHER ROUNDUP
NATIONAL WEATHER SERVICE GOODLAND KS
300 AM MDT SAT MAY 30 2015

...OFFICIAL OBSERVATIONS...

CITY           SKY/WX    TMP DP  RH WIND       PRES   REMARKS
GOODLAND KS    CLOUDY    49  47  93 N10       30.30R
HILL CITY KS   CLOUDY    51  45  79 N20G25    30.23F
IMPERIAL NEB   CLEAR     44  40  85 N7        30.30F
MCCOOK NEB     CLEAR     46  41  82 NW10      30.27S
AKRON CO       CLOUDY    47  44  90 CALM      30.31F
BURLINGTON CO  CLOUDY    49  46  90 N7        30.30F
LIMON CO       CLOUDY    45  43  93 NW3       30.33F
$$

...UNOFFICIAL OBSERVATIONS...

CITY           SKY/WX    TMP DP  RH WIND       PRES   REMARKS
COLBY KS       CLOUDY    48  48 100 N12       30.29S
GOVE KS          N/A     51  32  48 MISG        N/A
NORTON KS      CLOUDY    48  41  76 NW12      30.24
SHARON SPRINGS   N/A     50  47  90 MISG        N/A
KIT CARSON CO    N/A     47  43  85 MISG        N/A
$$


USA.gov is the U.S. government's official web portal to all federal, state and local government web resources and services.